Time,TemperatureF,DewpointF,PressureIn,WindDirection,WindDirectionDegrees,WindSpeedMPH,WindSpeedGustMPH,Humidity,HourlyPrecipIn,Conditions,Clouds,dailyrainin,SoftwareType,DateUTC
2013-05-31 00:02:00,40.1,22.5,29.83,NW,315,6.0,21.0,49,0.00,,,0.07,meteohub,2013-05-31 06:02:00,
2013-05-31 00:07:00,40.1,22.5,29.83,NW,315,6.0,18.0,49,0.00,,,0.00,meteohub,2013-05-31 06:07:00,
2013-05-31 00:12:00,39.7,22.1,29.83,West,270,10.0,18.0,49,0.00,,,0.00,meteohub,2013-05-31 06:12:00,
2013-05-31 00:17:00,39.7,22.1,29.84,West,270,12.0,16.0,49,0.00,,,0.00,meteohub,2013-05-31 06:17:00,
2013-05-31 00:22:00,39.7,21.7,29.84,NW,315,11.0,16.0,48,0.00,,,0.00,meteohub,2013-05-31 06:22:00,
2013-05-31 00:27:00,39.6,21.6,29.84,ESE,113,11.0,20.0,48,0.00,,,0.00,meteohub,2013-05-31 06:27:00,
2013-05-31 00:32:00,39.4,21.7,29.84,SE,135,9.0,21.0,49,0.00,,,0.00,meteohub,2013-05-31 06:32:00,
2013-05-31 00:37:00,39.4,21.7,29.84,NE,45,8.0,21.0,49,0.00,,,0.00,meteohub,2013-05-31 06:37:00,
2013-05-31 00:42:00,39.4,21.7,29.84,NW,315,18.0,21.0,49,0.00,,,0.00,meteohub,2013-05-31 06:42:00,
2013-05-31 00:47:00,39.4,21.7,29.85,NE,45,8.0,21.0,49,0.00,,,0.00,meteohub,2013-05-31 06:47:00,
2013-05-31 00:52:00,39.2,22.1,29.85,NE,45,6.0,21.0,50,0.00,,,0.00,meteohub,2013-05-31 06:52:00,
2013-05-31 00:57:00,39.2,21.6,29.85,South,180,11.0,21.0,49,0.00,,,0.00,meteohub,2013-05-31 06:57:00,
2013-05-31 01:02:00,39.2,21.6,29.85,SE,135,15.0,17.0,49,0.00,,,0.00,meteohub,2013-05-31 07:02:00,
2013-05-31 01:07:00,39.2,21.6,29.85,SE,135,15.0,16.0,49,0.00,,,0.00,meteohub,2013-05-31 07:07:00,
2013-05-31 01:12:00,39.0,21.6,29.85,South,180,11.0,16.0,49,0.00,,,0.00,meteohub,2013-05-31 07:12:00,
2013-05-31 01:17:00,39.0,21.9,29.85,East,90,5.0,15.0,50,0.00,,,0.00,meteohub,2013-05-31 07:17:00,
2013-05-31 01:22:00,38.8,21.7,29.85,NW,315,8.0,15.0,50,0.00,,,0.00,meteohub,2013-05-31 07:22:00,
2013-05-31 01:27:00,38.7,21.2,29.85,WSW,248,15.0,15.0,49,0.00,,,0.00,meteohub,2013-05-31 07:27:00,
2013-05-31 01:32:00,38.7,21.2,29.85,West,270,9.0,15.0,49,0.00,,,0.00,meteohub,2013-05-31 07:32:00,
2013-05-31 01:37:00,38.5,21.4,29.85,South,180,22.0,22.0,50,0.00,,,0.00,meteohub,2013-05-31 07:37:00,
2013-05-31 01:42:00,38.7,21.2,29.83,North,0,9.0,28.0,49,0.00,,,0.00,meteohub,2013-05-31 07:42:00,
2013-05-31 01:47:00,38.7,21.2,29.83,West,270,8.0,28.0,49,0.00,,,0.00,meteohub,2013-05-31 07:47:00,
2013-05-31 01:52:00,38.5,21.0,29.83,WSW,248,8.0,28.0,49,0.00,,,0.00,meteohub,2013-05-31 07:52:00,
2013-05-31 01:57:00,38.5,21.0,29.82,South,180,11.0,21.0,49,0.00,,,0.00,meteohub,2013-05-31 07:57:00,
2013-05-31 02:07:00,38.3,20.8,29.82,SW,225,11.0,19.0,49,0.00,,,0.00,meteohub,2013-05-31 08:07:00,
2013-05-31 02:12:00,38.1,21.6,29.83,WSW,248,16.0,16.0,51,0.00,,,0.00,meteohub,2013-05-31 08:12:00,
2013-05-31 02:17:00,38.1,21.2,29.82,West,270,18.0,19.0,50,0.00,,,0.00,meteohub,2013-05-31 08:17:00,
2013-05-31 02:22:00,38.1,21.2,29.82,East,90,21.0,26.0,50,0.00,,,0.00,meteohub,2013-05-31 08:22:00,
2013-05-31 02:27:00,38.3,21.2,29.81,NW,315,21.0,26.0,50,0.00,,,0.00,meteohub,2013-05-31 08:27:00,
2013-05-31 02:32:00,37.9,21.0,29.81,West,270,15.0,26.0,50,0.00,,,0.00,meteohub,2013-05-31 08:32:00,
2013-05-31 02:37:00,37.9,21.0,29.81,NNE,23,12.0,21.0,50,0.00,,,0.00,meteohub,2013-05-31 08:37:00,
2013-05-31 02:42:00,37.9,20.5,29.82,NW,315,20.0,27.0,49,0.00,,,0.00,meteohub,2013-05-31 08:42:00,
2013-05-31 02:47:00,37.9,20.5,29.81,SW,225,16.0,27.0,49,0.00,,,0.00,meteohub,2013-05-31 08:47:00,
2013-05-31 02:52:00,37.8,20.8,29.81,NW,315,17.0,30.0,50,0.00,,,0.00,meteohub,2013-05-31 08:52:00,
2013-05-31 02:57:00,37.8,20.3,29.82,NW,315,11.0,30.0,49,0.00,,,0.00,meteohub,2013-05-31 08:57:00,
2013-05-31 03:02:00,37.8,20.3,29.81,NW,315,23.0,30.0,49,0.00,,,0.00,meteohub,2013-05-31 09:02:00,
2013-05-31 03:07:00,37.8,20.3,29.81,NW,315,23.0,28.0,49,0.00,,,0.00,meteohub,2013-05-31 09:07:00,
2013-05-31 03:12:00,37.6,20.1,29.81,WNW,293,27.0,27.0,49,0.00,,,0.00,meteohub,2013-05-31 09:12:00,
2013-05-31 03:17:00,37.8,20.3,29.81,SSE,158,12.0,34.0,49,0.00,,,0.00,meteohub,2013-05-31 09:17:00,
2013-05-31 03:22:00,37.6,20.1,29.81,NE,45,19.0,34.0,49,0.00,,,0.00,meteohub,2013-05-31 09:22:00,
2013-05-31 03:27:00,37.6,20.7,29.80,SW,225,25.0,34.0,50,0.00,,,0.00,meteohub,2013-05-31 09:27:00,
2013-05-31 03:32:00,37.6,20.7,29.79,NW,315,22.0,25.0,50,0.00,,,0.00,meteohub,2013-05-31 09:32:00,
2013-05-31 03:37:00,37.6,20.7,29.80,SW,225,11.0,27.0,50,0.00,,,0.00,meteohub,2013-05-31 09:37:00,
2013-05-31 03:42:00,37.6,20.1,29.80,SW,225,16.0,27.0,49,0.00,,,0.00,meteohub,2013-05-31 09:42:00,
2013-05-31 04:07:00,37.6,19.6,29.82,NW,315,21.0,30.0,48,0.00,,,0.00,meteohub,2013-05-31 10:07:00,
2013-05-31 04:12:00,37.6,20.1,29.83,NW,315,16.0,30.0,49,0.00,,,0.00,meteohub,2013-05-31 10:12:00,
2013-05-31 04:17:00,37.4,19.9,29.83,North,0,15.0,22.0,49,0.00,,,0.00,meteohub,2013-05-31 10:17:00,
2013-05-31 04:22:00,37.6,20.1,29.85,SW,225,11.0,24.0,49,0.00,,,0.00,meteohub,2013-05-31 10:22:00,
2013-05-31 04:27:00,37.6,20.7,29.85,North,0,15.0,24.0,50,0.00,,,0.00,meteohub,2013-05-31 10:27:00,
2013-05-31 04:32:00,37.4,19.9,29.86,SW,225,15.0,27.0,49,0.00,,,0.00,meteohub,2013-05-31 10:32:00,
2013-05-31 04:37:00,37.2,20.8,29.87,West,270,19.0,27.0,51,0.00,,,0.00,meteohub,2013-05-31 10:37:00,
2013-05-31 04:42:00,37.2,20.3,29.87,East,90,15.0,27.0,50,0.00,,,0.00,meteohub,2013-05-31 10:42:00,
2013-05-31 04:47:00,37.2,20.3,29.88,West,270,21.0,22.0,50,0.00,,,0.00,meteohub,2013-05-31 10:47:00,
2013-05-31 04:52:00,37.2,20.3,29.87,South,180,15.0,22.0,50,0.00,,,0.00,meteohub,2013-05-31 10:52:00,
2013-05-31 04:57:00,37.2,20.3,29.88,SW,225,17.0,21.0,50,0.00,,,0.00,meteohub,2013-05-31 10:57:00,
2013-05-31 05:02:00,37.2,20.8,29.88,SE,135,10.0,21.0,51,0.00,,,0.00,meteohub,2013-05-31 11:02:00,
2013-05-31 05:07:00,37.2,20.8,29.88,SE,135,10.0,21.0,51,0.00,,,0.00,meteohub,2013-05-31 11:07:00,
2013-05-31 05:12:00,36.9,20.8,29.89,SW,225,13.0,17.0,52,0.00,,,0.00,meteohub,2013-05-31 11:12:00,
2013-05-31 05:17:00,36.9,20.5,29.89,East,90,5.0,17.0,51,0.00,,,0.00,meteohub,2013-05-31 11:17:00,
2013-05-31 05:22:00,36.9,19.9,29.89,East,90,23.0,23.0,50,0.00,,,0.00,meteohub,2013-05-31 11:22:00,
2013-05-31 05:27:00,37.0,20.7,29.89,South,180,5.0,23.0,51,0.00,,,0.00,meteohub,2013-05-31 11:27:00,
2013-05-31 05:32:00,36.9,20.5,29.91,South,180,8.0,23.0,51,0.00,,,0.00,meteohub,2013-05-31 11:32:00,
2013-05-31 05:37:00,36.9,20.5,29.90,South,180,3.0,23.0,51,0.00,,,0.00,meteohub,2013-05-31 11:37:00,
2013-05-31 05:42:00,36.7,20.3,29.91,NW,315,6.0,21.0,51,0.00,,,0.00,meteohub,2013-05-31 11:42:00,
2013-05-31 05:47:00,36.5,20.1,29.91,West,270,6.0,14.0,51,0.00,,,0.00,meteohub,2013-05-31 11:47:00,
2013-05-31 05:52:00,36.7,19.8,29.91,SE,135,9.0,14.0,50,0.00,,,0.00,meteohub,2013-05-31 11:52:00,
2013-05-31 05:57:00,36.9,19.0,29.91,NW,315,11.0,15.0,48,0.00,,,0.00,meteohub,2013-05-31 11:57:00,
2013-05-31 06:02:00,37.2,18.9,29.91,SW,225,7.0,15.0,47,0.00,,,0.00,meteohub,2013-05-31 12:02:00,
2013-05-31 06:07:00,37.2,18.9,29.93,SW,225,7.0,15.0,47,0.00,,,0.00,meteohub,2013-05-31 12:07:00,
2013-05-31 06:12:00,39.2,18.0,29.88,NW,315,14.0,15.0,42,0.00,,,0.00,meteohub,2013-05-31 12:12:00,
2013-05-31 06:17:00,40.1,18.3,29.87,West,270,10.0,16.0,41,0.00,,,0.00,meteohub,2013-05-31 12:17:00,
2013-05-31 06:22:00,40.8,18.3,29.86,NW,315,10.0,16.0,40,0.00,,,0.00,meteohub,2013-05-31 12:22:00,
2013-05-31 06:27:00,41.4,17.6,29.85,SSW,203,21.0,21.0,38,0.00,,,0.00,meteohub,2013-05-31 12:27:00,
2013-05-31 06:32:00,41.4,18.3,29.86,West,270,4.0,21.0,39,0.00,,,0.00,meteohub,2013-05-31 12:32:00,
2013-05-31 06:37:00,41.4,18.3,29.85,SW,225,8.0,21.0,39,0.00,,,0.00,meteohub,2013-05-31 12:37:00,
2013-05-31 06:42:00,41.9,18.7,29.85,South,180,10.0,21.0,39,0.00,,,0.00,meteohub,2013-05-31 12:42:00,
2013-05-31 06:47:00,41.9,18.7,29.85,SSW,203,8.0,17.0,39,0.00,,,0.00,meteohub,2013-05-31 12:47:00,
2013-05-31 06:52:00,42.4,18.0,29.83,NW,315,15.0,15.0,37,0.00,,,0.00,meteohub,2013-05-31 12:52:00,
2013-05-31 06:57:00,42.3,19.0,29.82,South,180,8.0,17.0,39,0.00,,,0.00,meteohub,2013-05-31 12:57:00,
2013-05-31 07:02:00,42.6,18.1,29.82,ESE,113,9.0,17.0,37,0.00,,,0.00,meteohub,2013-05-31 13:02:00,
2013-05-31 07:07:00,42.6,18.1,29.82,ESE,113,9.0,17.0,37,0.00,,,0.00,meteohub,2013-05-31 13:07:00,
2013-05-31 07:12:00,43.2,18.7,29.80,South,180,5.0,17.0,37,0.00,,,0.00,meteohub,2013-05-31 13:12:00,
2013-05-31 07:17:00,42.8,18.9,29.80,West,270,8.0,21.0,38,0.00,,,0.00,meteohub,2013-05-31 13:17:00,
2013-05-31 07:22:00,42.4,18.7,29.80,South,180,19.0,27.0,38,0.00,,,0.00,meteohub,2013-05-31 13:22:00,
2013-05-31 07:27:00,41.7,18.5,29.81,South,180,11.0,27.0,39,0.00,,,0.00,meteohub,2013-05-31 13:27:00,
2013-05-31 07:32:00,41.4,18.3,29.79,SE,135,27.0,27.0,39,0.00,,,0.00,meteohub,2013-05-31 13:32:00,
2013-05-31 07:37:00,41.2,18.7,29.79,North,0,15.0,30.0,40,0.00,,,0.00,meteohub,2013-05-31 13:37:00,
2013-05-31 07:42:00,41.2,18.1,29.78,South,180,29.0,30.0,39,0.00,,,0.00,meteohub,2013-05-31 13:42:00,
2013-05-31 07:47:00,41.9,16.9,29.77,NW,315,17.0,29.0,36,0.00,,,0.00,meteohub,2013-05-31 13:47:00,
2013-05-31 07:52:00,41.9,13.5,29.78,North,0,15.0,29.0,31,0.00,,,0.00,meteohub,2013-05-31 13:52:00,
2013-05-31 07:57:00,42.6,14.0,29.77,NW,315,16.0,30.0,31,0.00,,,0.00,meteohub,2013-05-31 13:57:00,
2013-05-31 08:02:00,42.6,14.9,29.78,NE,45,13.0,30.0,32,0.00,,,0.00,meteohub,2013-05-31 14:02:00,
2013-05-31 08:07:00,42.6,14.9,29.77,NE,45,13.0,30.0,32,0.00,,,0.00,meteohub,2013-05-31 14:07:00,
2013-05-31 08:12:00,43.9,14.4,29.72,NNE,23,25.0,25.0,30,0.00,,,0.00,meteohub,2013-05-31 14:12:00,
2013-05-31 08:17:00,43.5,14.2,29.70,SW,225,25.0,34.0,30,0.00,,,0.00,meteohub,2013-05-31 14:17:00,
2013-05-31 08:22:00,43.7,14.4,29.68,North,0,27.0,36.0,30,0.00,,,0.00,meteohub,2013-05-31 14:22:00,
2013-05-31 08:27:00,44.1,13.8,29.69,NW,315,31.0,36.0,29,0.00,,,0.00,meteohub,2013-05-31 14:27:00,
2013-05-31 08:32:00,44.1,13.1,29.69,NE,45,17.0,36.0,28,0.00,,,0.00,meteohub,2013-05-31 14:32:00,
2013-05-31 08:37:00,44.8,14.5,29.70,WSW,248,17.0,33.0,29,0.01,,,0.01,meteohub,2013-05-31 14:37:00,
2013-05-31 08:42:00,45.3,14.9,29.68,NE,45,30.0,33.0,29,0.01,,,0.01,meteohub,2013-05-31 14:42:00,
2013-05-31 08:47:00,45.3,15.6,29.68,North,0,20.0,34.0,30,0.04,,,0.04,meteohub,2013-05-31 14:47:00,
2013-05-31 08:52:00,45.5,16.5,29.68,North,0,18.0,45.0,31,0.04,,,0.04,meteohub,2013-05-31 14:52:00,
2013-05-31 08:57:00,45.5,15.8,29.68,SE,135,22.0,45.0,30,0.04,,,0.04,meteohub,2013-05-31 14:57:00,
2013-05-31 09:02:00,45.5,16.5,29.65,North,0,30.0,31.0,31,0.04,,,0.04,meteohub,2013-05-31 15:02:00,
2013-05-31 09:07:00,45.5,16.5,29.65,North,0,30.0,31.0,31,0.04,,,0.04,meteohub,2013-05-31 15:07:00,
2013-05-31 09:12:00,45.1,17.1,29.67,WNW,293,28.0,30.0,32,0.04,,,0.04,meteohub,2013-05-31 15:12:00,
2013-05-31 09:17:00,45.1,17.8,29.66,SW,225,15.0,39.0,33,0.04,,,0.04,meteohub,2013-05-31 15:17:00,
2013-05-31 09:22:00,45.5,18.1,29.65,North,0,43.0,43.0,33,0.04,,,0.04,meteohub,2013-05-31 15:22:00,
2013-05-31 09:27:00,45.7,17.4,29.65,NW,315,32.0,43.0,32,0.04,,,0.04,meteohub,2013-05-31 15:27:00,
2013-05-31 09:37:00,47.3,17.4,29.62,SE,135,20.0,43.0,30,0.02,,,0.04,meteohub,2013-05-31 15:37:00,
2013-05-31 09:42:00,47.5,16.9,29.61,WNW,293,17.0,32.0,29,0.02,,,0.04,meteohub,2013-05-31 15:42:00,
2013-05-31 09:52:00,47.1,14.9,29.62,NE,45,20.0,30.0,27,0.00,,,0.04,meteohub,2013-05-31 15:52:00,
2013-05-31 09:57:00,47.1,16.5,29.60,North,0,21.0,33.0,29,0.00,,,0.04,meteohub,2013-05-31 15:57:00,
2013-05-31 10:02:00,47.1,14.9,29.62,NE,45,27.0,33.0,27,0.00,,,0.04,meteohub,2013-05-31 16:02:00,
2013-05-31 10:07:00,47.1,14.9,29.64,NE,45,27.0,33.0,27,0.00,,,0.04,meteohub,2013-05-31 16:07:00,
2013-05-31 10:12:00,46.9,12.9,29.60,North,0,29.0,34.0,25,0.00,,,0.04,meteohub,2013-05-31 16:12:00,
2013-05-31 10:17:00,47.1,13.1,29.60,SW,225,23.0,36.0,25,0.00,,,0.04,meteohub,2013-05-31 16:17:00,
2013-05-31 10:22:00,47.3,14.2,29.60,North,0,29.0,40.0,26,0.00,,,0.04,meteohub,2013-05-31 16:22:00,
2013-05-31 10:27:00,47.3,12.4,29.62,NW,315,24.0,40.0,24,0.00,,,0.04,meteohub,2013-05-31 16:27:00,
2013-05-31 10:32:00,47.8,11.8,29.60,North,0,22.0,36.0,23,0.00,,,0.04,meteohub,2013-05-31 16:32:00,
2013-05-31 10:37:00,47.7,12.6,29.60,East,90,21.0,36.0,24,0.00,,,0.04,meteohub,2013-05-31 16:37:00,
2013-05-31 10:42:00,47.7,11.7,29.61,SW,225,26.0,36.0,23,0.07,,,0.04,meteohub,2013-05-31 16:42:00,
2013-05-31 10:47:00,48.4,11.3,29.59,NW,315,30.0,48.0,22,0.07,,,0.11,meteohub,2013-05-31 16:47:00,
2013-05-31 10:52:00,48.7,11.7,29.58,North,0,29.0,48.0,22,0.07,,,0.11,meteohub,2013-05-31 16:52:00,
2013-05-31 10:57:00,48.2,11.1,29.59,ESE,113,36.0,48.0,22,0.07,,,0.11,meteohub,2013-05-31 16:57:00,
2013-05-31 11:02:00,48.2,11.1,29.60,NE,45,19.0,40.0,22,0.07,,,0.11,meteohub,2013-05-31 17:02:00,
2013-05-31 11:07:00,48.2,11.1,29.62,NE,45,19.0,40.0,22,0.07,,,0.11,meteohub,2013-05-31 17:07:00,
2013-05-31 11:12:00,48.6,10.4,29.62,NW,315,28.0,40.0,21,0.07,,,0.11,meteohub,2013-05-31 17:12:00,
2013-05-31 11:17:00,48.7,11.7,29.63,NE,45,25.0,34.0,22,0.07,,,0.11,meteohub,2013-05-31 17:17:00,
2013-05-31 11:22:00,49.1,11.8,29.63,West,270,28.0,38.0,22,0.07,,,0.11,meteohub,2013-05-31 17:22:00,
2013-05-31 11:27:00,49.5,12.2,29.62,NNW,338,19.0,38.0,22,0.07,,,0.11,meteohub,2013-05-31 17:27:00,
2013-05-31 11:32:00,50.0,11.7,29.60,SSW,203,14.0,38.0,21,0.07,,,0.11,meteohub,2013-05-31 17:32:00,
2013-05-31 11:37:00,50.0,11.7,29.63,ESE,113,13.0,34.0,21,0.07,,,0.11,meteohub,2013-05-31 17:37:00,
2013-05-31 11:42:00,51.1,9.0,29.60,NW,315,33.0,34.0,18,0.00,,,0.11,meteohub,2013-05-31 17:42:00,
2013-05-31 11:47:00,50.9,6.3,29.60,East,90,21.0,34.0,16,0.00,,,0.11,meteohub,2013-05-31 17:47:00,
2013-05-31 11:52:00,50.4,8.4,29.63,North,0,21.0,33.0,18,0.00,,,0.11,meteohub,2013-05-31 17:52:00,
2013-05-31 11:57:00,50.9,4.8,29.60,North,0,36.0,36.0,15,0.00,,,0.11,meteohub,2013-05-31 17:57:00,
2013-05-31 12:02:00,52.3,4.5,29.57,WNW,293,29.0,45.0,14,0.00,,,0.11,meteohub,2013-05-31 18:02:00,
2013-05-31 12:07:00,52.3,4.5,29.57,WNW,293,29.0,45.0,14,0.00,,,0.11,meteohub,2013-05-31 18:07:00,
2013-05-31 12:17:00,50.7,1.6,29.61,NW,315,29.0,29.0,13,0.00,,,0.11,meteohub,2013-05-31 18:17:00,
2013-05-31 12:22:00,51.1,5.0,29.62,North,0,24.0,29.0,15,0.00,,,0.11,meteohub,2013-05-31 18:22:00,
2013-05-31 12:32:00,51.4,5.4,29.62,NW,315,8.0,34.0,15,0.00,,,0.11,meteohub,2013-05-31 18:32:00,
2013-05-31 12:37:00,51.4,3.7,29.61,West,270,35.0,35.0,14,0.00,,,0.11,meteohub,2013-05-31 18:37:00,
2013-05-31 12:42:00,51.4,2.1,29.62,NNW,338,25.0,35.0,13,0.00,,,0.11,meteohub,2013-05-31 18:42:00,
2013-05-31 12:47:00,51.4,3.7,29.65,North,0,26.0,35.0,14,0.00,,,0.11,meteohub,2013-05-31 18:47:00,
2013-05-31 12:52:00,51.1,3.6,29.65,West,270,29.0,35.0,14,0.00,,,0.11,meteohub,2013-05-31 18:52:00,
2013-05-31 12:57:00,51.1,6.4,29.64,WNW,293,31.0,31.0,16,0.01,,,0.12,meteohub,2013-05-31 18:57:00,
2013-05-31 13:02:00,52.9,3.4,29.63,North,0,33.0,33.0,13,0.01,,,0.12,meteohub,2013-05-31 19:02:00,
2013-05-31 13:12:00,51.6,3.9,29.65,ENE,68,21.0,33.0,14,0.01,,,0.12,meteohub,2013-05-31 19:12:00,
2013-05-31 13:17:00,51.6,3.9,29.65,North,0,27.0,33.0,14,0.01,,,0.12,meteohub,2013-05-31 19:17:00,
2013-05-31 13:22:00,52.0,9.7,29.64,NW,315,15.0,33.0,18,0.01,,,0.12,meteohub,2013-05-31 19:22:00,
2013-05-31 13:27:00,52.0,7.2,29.66,NW,315,21.0,36.0,16,0.01,,,0.12,meteohub,2013-05-31 19:27:00,
2013-05-31 13:32:00,52.2,8.6,29.65,West,270,20.0,36.0,17,0.01,,,0.12,meteohub,2013-05-31 19:32:00,
2013-05-31 13:42:00,52.9,5.0,29.63,North,0,23.0,28.0,14,0.01,,,0.12,meteohub,2013-05-31 19:42:00,
2013-05-31 13:47:00,52.9,3.4,29.63,NW,315,17.0,28.0,13,0.01,,,0.12,meteohub,2013-05-31 19:47:00,
2013-05-31 13:52:00,52.2,5.9,29.65,North,0,21.0,28.0,15,0.01,,,0.12,meteohub,2013-05-31 19:52:00,
2013-05-31 14:02:00,52.3,6.1,29.66,NW,315,36.0,39.0,15,0.00,,,0.12,meteohub,2013-05-31 20:02:00,
2013-05-31 14:07:00,52.3,6.1,29.65,NW,315,36.0,39.0,15,0.00,,,0.12,meteohub,2013-05-31 20:07:00,
2013-05-31 14:12:00,52.2,1.0,29.67,NW,315,23.0,39.0,12,0.00,,,0.12,meteohub,2013-05-31 20:12:00,
2013-05-31 14:17:00,53.8,5.7,29.64,North,0,11.0,36.0,14,0.00,,,0.12,meteohub,2013-05-31 20:17:00,
2013-05-31 14:22:00,54.5,4.6,29.62,NW,315,21.0,36.0,13,0.00,,,0.12,meteohub,2013-05-31 20:22:00,
2013-05-31 14:27:00,54.1,2.7,29.63,NW,315,30.0,30.0,12,0.00,,,0.12,meteohub,2013-05-31 20:27:00,
2013-05-31 14:32:00,53.4,-1.8,29.65,West,270,23.0,31.0,10,0.00,,,0.12,meteohub,2013-05-31 20:32:00,
2013-05-31 14:37:00,53.2,0.0,29.65,NW,315,17.0,31.0,11,0.00,,,0.12,meteohub,2013-05-31 20:37:00,
2013-05-31 14:42:00,53.6,3.9,29.64,NW,315,18.0,30.0,13,0.00,,,0.12,meteohub,2013-05-31 20:42:00,
2013-05-31 14:47:00,53.8,2.3,29.64,NE,45,17.0,30.0,12,0.00,,,0.12,meteohub,2013-05-31 20:47:00,
2013-05-31 14:52:00,53.4,2.1,29.64,NW,315,17.0,30.0,12,0.00,,,0.12,meteohub,2013-05-31 20:52:00,
2013-05-31 14:57:00,54.0,2.5,29.64,NE,45,17.0,26.0,12,0.00,,,0.12,meteohub,2013-05-31 20:57:00,
2013-05-31 15:02:00,54.3,4.5,29.64,North,0,14.0,30.0,13,0.00,,,0.12,meteohub,2013-05-31 21:02:00,
2013-05-31 15:07:00,54.3,4.5,29.64,North,0,14.0,30.0,13,0.00,,,0.12,meteohub,2013-05-31 21:07:00,
2013-05-31 15:12:00,54.1,2.7,29.65,South,180,21.0,30.0,12,0.00,,,0.12,meteohub,2013-05-31 21:12:00,
2013-05-31 15:17:00,54.0,2.5,29.65,WNW,293,17.0,23.0,12,0.00,,,0.12,meteohub,2013-05-31 21:17:00,
2013-05-31 15:22:00,54.1,0.7,29.65,West,270,22.0,25.0,11,0.00,,,0.12,meteohub,2013-05-31 21:22:00,
2013-05-31 15:27:00,53.8,-1.5,29.65,NW,315,24.0,28.0,10,0.00,,,0.12,meteohub,2013-05-31 21:27:00,
2013-05-31 15:32:00,54.1,2.7,29.65,NW,315,26.0,34.0,12,0.00,,,0.12,meteohub,2013-05-31 21:32:00,
2013-05-31 15:37:00,54.1,2.7,29.66,SW,225,23.0,34.0,12,0.00,,,0.12,meteohub,2013-05-31 21:37:00,
2013-05-31 15:42:00,55.2,5.2,29.63,NW,315,15.0,27.0,13,0.00,,,0.12,meteohub,2013-05-31 21:42:00,
2013-05-31 15:47:00,54.7,3.0,29.65,NW,315,30.0,30.0,12,0.00,,,0.12,meteohub,2013-05-31 21:47:00,
2013-05-31 15:57:00,54.5,2.8,29.66,NW,315,19.0,30.0,12,0.00,,,0.12,meteohub,2013-05-31 21:57:00,
2013-05-31 16:02:00,54.5,2.8,29.65,NW,315,15.0,30.0,12,0.00,,,0.12,meteohub,2013-05-31 22:02:00,
2013-05-31 16:07:00,54.5,2.8,29.65,NW,315,15.0,24.0,12,0.00,,,0.12,meteohub,2013-05-31 22:07:00,
2013-05-31 16:12:00,54.5,4.6,29.66,SW,225,11.0,25.0,13,0.00,,,0.12,meteohub,2013-05-31 22:12:00,
2013-05-31 16:17:00,54.5,2.8,29.66,North,0,15.0,25.0,12,0.00,,,0.12,meteohub,2013-05-31 22:17:00,
2013-05-31 16:22:00,54.5,4.6,29.65,SW,225,14.0,28.0,13,0.00,,,0.12,meteohub,2013-05-31 22:22:00,
2013-05-31 16:27:00,55.4,3.6,29.65,SW,225,15.0,28.0,12,0.00,,,0.12,meteohub,2013-05-31 22:27:00,
2013-05-31 16:32:00,54.7,3.0,29.66,NW,315,21.0,28.0,12,0.00,,,0.12,meteohub,2013-05-31 22:32:00,
2013-05-31 16:37:00,54.5,1.0,29.67,NE,45,22.0,22.0,11,0.00,,,0.12,meteohub,2013-05-31 22:37:00,
2013-05-31 16:42:00,54.1,2.7,29.69,North,0,26.0,26.0,12,0.00,,,0.12,meteohub,2013-05-31 22:42:00,
2013-05-31 16:47:00,54.9,5.0,29.67,East,90,15.0,26.0,13,0.00,,,0.12,meteohub,2013-05-31 22:47:00,
2013-05-31 16:52:00,55.2,3.4,29.67,NW,315,19.0,26.0,12,0.00,,,0.12,meteohub,2013-05-31 22:52:00,
2013-05-31 16:57:00,55.0,5.0,29.68,North,0,11.0,26.0,13,0.00,,,0.12,meteohub,2013-05-31 22:57:00,
2013-05-31 17:02:00,55.6,3.7,29.67,North,0,11.0,21.0,12,0.00,,,0.12,meteohub,2013-05-31 23:02:00,
2013-05-31 17:07:00,55.6,3.7,29.66,North,0,11.0,20.0,12,0.00,,,0.12,meteohub,2013-05-31 23:07:00,
2013-05-31 17:12:00,55.9,5.7,29.65,North,0,12.0,17.0,13,0.00,,,0.12,meteohub,2013-05-31 23:12:00,
2013-05-31 17:17:00,55.6,-0.2,29.66,South,180,20.0,22.0,10,0.00,,,0.12,meteohub,2013-05-31 23:17:00,
2013-05-31 17:22:00,55.4,3.6,29.67,North,0,10.0,23.0,12,0.00,,,0.12,meteohub,2013-05-31 23:22:00,
2013-05-31 17:32:00,53.8,4.1,29.68,SW,225,17.0,22.0,13,0.00,,,0.12,meteohub,2013-05-31 23:32:00,
2013-05-31 17:37:00,54.1,4.3,29.69,SW,225,20.0,27.0,13,0.00,,,0.12,meteohub,2013-05-31 23:37:00,
2013-05-31 17:42:00,54.5,6.3,29.68,NNW,338,11.0,27.0,14,0.00,,,0.12,meteohub,2013-05-31 23:42:00,
2013-05-31 17:47:00,56.1,5.9,29.65,NW,315,18.0,20.0,13,0.00,,,0.12,meteohub,2013-05-31 23:47:00,
2013-05-31 17:52:00,54.7,3.0,29.68,North,0,20.0,20.0,12,0.00,,,0.12,meteohub,2013-05-31 23:52:00,
2013-05-31 17:57:00,54.9,3.2,29.68,West,270,16.0,23.0,12,0.00,,,0.12,meteohub,2013-05-31 23:57:00,
2013-05-31 18:02:00,56.3,4.3,29.65,NW,315,19.0,23.0,12,0.00,,,0.12,meteohub,2013-06-01 00:02:00,
2013-05-31 18:07:00,56.3,4.3,29.65,NW,315,19.0,23.0,12,0.00,,,0.12,meteohub,2013-06-01 00:07:00,
2013-05-31 18:12:00,55.8,1.9,29.66,SSW,203,15.0,20.0,11,0.00,,,0.12,meteohub,2013-06-01 00:12:00,
2013-05-31 18:17:00,54.0,2.5,29.68,NNW,338,15.0,23.0,12,0.00,,,0.12,meteohub,2013-06-01 00:17:00,
2013-05-31 18:22:00,53.8,5.7,29.67,West,270,25.0,25.0,14,0.00,,,0.12,meteohub,2013-06-01 00:22:00,
2013-05-31 18:27:00,52.7,4.8,29.70,West,270,21.0,27.0,14,0.00,,,0.12,meteohub,2013-06-01 00:27:00,
2013-05-31 18:32:00,52.3,4.5,29.70,SW,225,16.0,27.0,14,0.00,,,0.12,meteohub,2013-06-01 00:32:00,
2013-05-31 18:47:00,50.5,8.6,29.74,SSW,203,15.0,27.0,18,0.00,,,0.12,meteohub,2013-06-01 00:47:00,
2013-05-31 18:52:00,50.5,7.3,29.73,West,270,19.0,27.0,17,0.00,,,0.12,meteohub,2013-06-01 00:52:00,
2013-05-31 18:57:00,50.5,7.3,29.74,NW,315,23.0,24.0,17,0.00,,,0.12,meteohub,2013-06-01 00:57:00,
2013-05-31 19:02:00,50.5,8.6,29.74,NW,315,21.0,24.0,18,0.00,,,0.12,meteohub,2013-06-01 01:02:00,
2013-05-31 19:07:00,50.5,8.6,29.75,NW,315,21.0,24.0,18,0.00,,,0.12,meteohub,2013-06-01 01:07:00,
2013-05-31 19:12:00,50.5,8.6,29.75,NW,315,11.0,23.0,18,0.00,,,0.12,meteohub,2013-06-01 01:12:00,
2013-05-31 19:17:00,50.5,8.6,29.76,NW,315,20.0,27.0,18,0.00,,,0.12,meteohub,2013-06-01 01:17:00,
2013-05-31 19:22:00,50.2,8.2,29.76,East,90,13.0,27.0,18,0.00,,,0.12,meteohub,2013-06-01 01:22:00,
2013-05-31 19:27:00,49.6,9.0,29.78,NW,315,21.0,27.0,19,0.00,,,0.12,meteohub,2013-06-01 01:27:00,
2013-05-31 19:32:00,49.6,9.0,29.79,South,180,26.0,26.0,19,0.00,,,0.12,meteohub,2013-06-01 01:32:00,
2013-05-31 19:37:00,48.9,9.5,29.80,West,270,22.0,27.0,20,0.00,,,0.12,meteohub,2013-06-01 01:37:00,
2013-05-31 19:42:00,48.7,9.5,29.81,NNW,338,10.0,27.0,20,0.00,,,0.12,meteohub,2013-06-01 01:42:00,
2013-05-31 19:47:00,48.4,11.3,29.82,East,90,5.0,27.0,22,0.00,,,0.12,meteohub,2013-06-01 01:47:00,
2013-05-31 19:52:00,48.0,10.9,29.83,NNW,338,19.0,22.0,22,0.00,,,0.12,meteohub,2013-06-01 01:52:00,
2013-05-31 19:57:00,47.8,9.9,29.84,South,180,18.0,19.0,21,0.00,,,0.12,meteohub,2013-06-01 01:57:00,
2013-05-31 20:07:00,47.7,10.6,29.85,SE,135,4.0,23.0,22,0.00,,,0.12,meteohub,2013-06-01 02:07:00,
2013-05-31 20:12:00,47.3,11.3,29.86,SW,225,15.0,23.0,23,0.00,,,0.12,meteohub,2013-06-01 02:12:00,
2013-05-31 20:17:00,47.1,12.2,29.86,NW,315,6.0,21.0,24,0.00,,,0.12,meteohub,2013-06-01 02:17:00,
2013-05-31 20:22:00,46.9,12.0,29.86,South,180,8.0,21.0,24,0.00,,,0.12,meteohub,2013-06-01 02:22:00,
2013-05-31 20:27:00,46.8,11.8,29.87,SE,135,17.0,17.0,24,0.00,,,0.12,meteohub,2013-06-01 02:27:00,
2013-05-31 20:32:00,46.8,11.8,29.87,NW,315,11.0,17.0,24,0.00,,,0.12,meteohub,2013-06-01 02:32:00,
2013-05-31 20:37:00,46.6,11.7,29.88,North,0,15.0,17.0,24,0.00,,,0.12,meteohub,2013-06-01 02:37:00,
2013-05-31 20:42:00,46.8,11.8,29.88,West,270,6.0,34.0,24,0.00,,,0.12,meteohub,2013-06-01 02:42:00,
2013-05-31 20:47:00,46.8,11.8,29.86,SW,225,4.0,34.0,24,0.00,,,0.12,meteohub,2013-06-01 02:47:00,
2013-05-31 20:57:00,46.6,13.5,29.88,North,0,5.0,23.0,26,0.00,,,0.12,meteohub,2013-06-01 02:57:00,
2013-05-31 21:02:00,46.4,12.6,29.88,SW,225,5.0,23.0,25,0.00,,,0.12,meteohub,2013-06-01 03:02:00,
2013-05-31 21:07:00,46.4,12.6,29.89,SW,225,5.0,23.0,25,0.00,,,0.12,meteohub,2013-06-01 03:07:00,
2013-05-31 21:17:00,46.0,12.2,29.89,SE,135,9.0,13.0,25,0.00,,,0.12,meteohub,2013-06-01 03:17:00,
2013-05-31 21:22:00,46.0,12.2,29.91,West,270,5.0,13.0,25,0.00,,,0.12,meteohub,2013-06-01 03:22:00,
2013-05-31 21:27:00,45.9,13.8,29.91,NE,45,4.0,13.0,27,0.00,,,0.12,meteohub,2013-06-01 03:27:00,
2013-05-31 21:32:00,45.3,12.4,29.92,East,90,4.0,13.0,26,0.00,,,0.12,meteohub,2013-06-01 03:32:00,
2013-05-31 21:42:00,46.0,13.1,29.91,SE,135,8.0,11.0,26,0.00,,,0.12,meteohub,2013-06-01 03:42:00,
2013-05-31 21:47:00,45.7,12.7,29.92,NE,45,8.0,11.0,26,0.00,,,0.12,meteohub,2013-06-01 03:47:00,
2013-05-31 21:52:00,45.5,12.6,29.93,SSW,203,4.0,12.0,26,0.00,,,0.12,meteohub,2013-06-01 03:52:00,
2013-05-31 21:57:00,45.7,13.6,29.91,NW,315,4.0,12.0,27,0.00,,,0.12,meteohub,2013-06-01 03:57:00,
2013-05-31 22:02:00,45.3,14.2,29.91,North,0,8.0,12.0,28,0.00,,,0.12,meteohub,2013-06-01 04:02:00,
2013-05-31 22:07:00,45.3,14.2,29.92,North,0,8.0,8.0,28,0.00,,,0.12,meteohub,2013-06-01 04:07:00,
2013-05-31 22:12:00,45.7,12.7,29.91,SE,135,13.0,17.0,26,0.00,,,0.12,meteohub,2013-06-01 04:12:00,
2013-05-31 22:17:00,45.7,12.7,29.89,SE,135,21.0,21.0,26,0.00,,,0.12,meteohub,2013-06-01 04:17:00,
2013-05-31 22:22:00,45.5,12.6,29.89,NE,45,17.0,21.0,26,0.00,,,0.12,meteohub,2013-06-01 04:22:00,
2013-05-31 22:27:00,45.5,13.5,29.91,SE,135,4.0,21.0,27,0.00,,,0.12,meteohub,2013-06-01 04:27:00,
2013-05-31 22:32:00,45.7,12.7,29.91,SE,135,6.0,21.0,26,0.00,,,0.12,meteohub,2013-06-01 04:32:00,
2013-05-31 22:37:00,45.5,13.5,29.91,East,90,10.0,23.0,27,0.00,,,0.12,meteohub,2013-06-01 04:37:00,
2013-05-31 22:42:00,45.5,12.6,29.91,SE,135,11.0,23.0,26,0.00,,,0.12,meteohub,2013-06-01 04:42:00,
2013-05-31 22:47:00,45.1,13.1,29.92,SE,135,10.0,23.0,27,0.00,,,0.12,meteohub,2013-06-01 04:47:00,
2013-05-31 22:57:00,44.4,14.2,29.94,SE,135,4.0,11.0,29,0.00,,,0.12,meteohub,2013-06-01 04:57:00,
2013-05-31 23:02:00,44.4,14.2,29.93,SW,225,7.0,10.0,29,0.00,,,0.12,meteohub,2013-06-01 05:02:00,
2013-05-31 23:07:00,44.4,14.2,29.94,SW,225,7.0,8.0,29,0.00,,,0.12,meteohub,2013-06-01 05:07:00,
2013-05-31 23:12:00,45.0,14.5,29.93,SE,135,4.0,8.0,29,0.00,,,0.12,meteohub,2013-06-01 05:12:00,
2013-05-31 23:17:00,45.0,14.5,29.93,South,180,6.0,8.0,29,0.00,,,0.12,meteohub,2013-06-01 05:17:00,
2013-05-31 23:22:00,45.1,15.6,29.93,East,90,6.0,8.0,30,0.00,,,0.12,meteohub,2013-06-01 05:22:00,
2013-05-31 23:27:00,44.6,15.1,29.95,North,0,7.0,10.0,30,0.00,,,0.12,meteohub,2013-06-01 05:27:00,
2013-05-31 23:32:00,44.8,15.3,29.95,SE,135,10.0,10.0,30,0.00,,,0.12,meteohub,2013-06-01 05:32:00,
2013-05-31 23:37:00,45.5,14.4,29.94,South,180,17.0,17.0,28,0.00,,,0.12,meteohub,2013-06-01 05:37:00,
2013-05-31 23:42:00,45.9,14.5,29.94,SSE,158,9.0,17.0,28,0.00,,,0.12,meteohub,2013-06-01 05:42:00,
2013-05-31 23:47:00,45.5,15.1,29.94,West,270,6.0,17.0,29,0.00,,,0.12,meteohub,2013-06-01 05:47:00,
2013-05-31 23:52:00,45.1,15.6,29.95,NE,45,6.0,17.0,30,0.00,,,0.12,meteohub,2013-06-01 05:52:00,
2013-05-31 23:57:00,44.8,15.3,29.96,WNW,293,4.0,12.0,30,0.00,,,0.12,meteohub,2013-06-01 05:57:00,